Terminal Aerodrome Forecast
Issued by NWS

Home | Current Version | Previous Version | Text Only | Print | Product List | Glossary On
Versions: 1 2 3 4 5 6 7 8 9 10 11 12 13 14 15 16 17 18 19 20 21 22 23 24
843
FTUS43 KLSX 280520
TAFCPS
TAF
KCPS 280520Z 2806/2906 32004KT P6SM OVC150
     FM281400 26006KT P6SM BKN030
     FM281900 29009KT P6SM BKN035
     FM290000 29005KT P6SM FEW250=

USA.gov is the U.S. government's official web portal to all federal, state and local government web resources and services.